Location: Nairn
(57.5833°N, 3.8667°W)
Time: 03:17:24
(UTC+00:00)

Meteor 1-28 Rocket - Pass Details

Date: 07 August 2020
Orbit: 502 x 524 km, 97.3° (Epoch: 27 September)

Event Time Altitude Azimuth Distance (km) Brightness Sun altitude
Exits shadow 02:35:49 - 156° (SSE) 2,541 6.4 -11.0°
Reaches altitude 10° 02:37:40 10° 155° (SSE) 1,758 5.6 -10.9°
Maximum altitude 02:41:27 69° 72° (ENE) 566 3.5 -10.6°
Drops below altitude 10° 02:45:16 10° 349° (N) 1,780 6.6 -10.3°
Sets 02:47:23 0° 347° (NNW) 2,675 7.5 -10.2°
